User: anonymous   Login
Location: Melara
(45.0500°N, 11.1833°E)
Time: 16:03:07
(UTC+00:00)
Language:

Cosmos 614 Rocket - Orbit

View from above orbital plane
View from above orbital plane
View from above satellite
View from above satellite

Ground track
Ground track

The orbit data is extracted from the following two-line orbital elements,

1 06966U 73098B   22228.41024168  .00000172  00000-0  58993-4 0  9994
2 06966  74.0576 323.4107 0021286 186.5156 173.5728 14.43214727557262
Epoch (UTC): 16 August 2022 09:50:44
Eccentricity: 0.0021286
inclination: 74.0576°
perigee height: 733 km
apogee height: 763 km
right ascension of ascending node: 323.4107°
argument of perigee: 186.5156°
revolutions per day: 14.43214727
mean anomaly at epoch: 173.5728°
orbit number at epoch: 55726

The dashed part of the orbit path shows where the satellite is in the earth's shadow,  

DLR